Location: Honey Creek State Natural Area
(29.8555°N, 98.4942°W)
Time: 04:04:45
(UTC-06:00)

Tiangong 2 - Visible Passes

Search period start: 23 January 2018 00:00
Search period end: 02 February 2018 00:00
Orbit: 384 x 390 km, 42.8° (Epoch: 22 January)

Date Brightness Start Highest point End Pass type
(mag) Time Alt. Az. Time Alt. Az. Time Alt. Az.
25 Jan 3.7 06:56:27 10° N 06:57:21 11° NNE 06:58:14 10° NNE visible
27 Jan 3.5 06:34:58 10° NNW 06:36:54 15° NNE 06:38:50 10° ENE visible
28 Jan 4.1 05:38:34 10° NNE 05:38:34 10° NNE 05:38:50 10° NNE visible
29 Jan 3.0 06:14:51 17° NNW 06:16:20 23° NNE 06:18:58 10° E visible
30 Jan 4.3 05:18:55 12° NE 05:18:55 12° NE 05:19:20 10° ENE visible
30 Jan 1.1 06:51:18 10° NW 06:54:29 87° NE 06:57:39 10° ESE visible
31 Jan 1.9 05:55:19 39° N 05:55:39 41° NNE 05:58:41 10° ESE visible
01 Feb 1.8 06:31:48 20° W 06:33:35 38° SW 06:36:34 10° SSE visible
